TimeAKST,TemperatureF,Dew PointF,Humidity,Sea Level PressureIn,VisibilityMPH,Wind Direction,Wind SpeedMPH,Gust SpeedMPH,PrecipitationIn,Events,Conditions,WindDirDegrees,DateUTC
12:56 AM,1.9,-2.9,80,30.06,9.0,Calm,Calm,-,N/A,,Overcast,0,2013-03-02 09:56:00
1:56 AM,-2.9,-7.1,82,30.07,10.0,Calm,Calm,-,N/A,,Overcast,0,2013-03-02 10:56:00
2:56 AM,-6.0,-9.9,83,30.07,10.0,Calm,Calm,-,N/A,,Mostly Cloudy,0,2013-03-02 11:56:00
3:56 AM,-4.0,-9.0,79,30.08,10.0,Calm,Calm,-,N/A,,Overcast,0,2013-03-02 12:56:00
4:56 AM,-5.1,-9.0,83,30.09,10.0,Calm,Calm,-,N/A,,Overcast,0,2013-03-02 13:56:00
5:56 AM,-9.0,-13.0,83,30.11,10.0,Calm,Calm,-,N/A,,Clear,0,2013-03-02 14:56:00
6:56 AM,-9.0,-14.1,79,30.11,10.0,Calm,Calm,-,N/A,,Scattered Clouds,0,2013-03-02 15:56:00
7:56 AM,-6.0,-11.0,79,30.10,10.0,Calm,Calm,-,N/A,,Overcast,0,2013-03-02 16:56:00
8:56 AM,-11.9,-14.1,90,30.11,10.0,Calm,Calm,-,N/A,,Clear,0,2013-03-02 17:56:00
9:56 AM,-9.0,-11.0,91,30.12,10.0,Calm,Calm,-,N/A,,Clear,0,2013-03-02 18:56:00
10:56 AM,-2.0,-5.1,87,30.13,10.0,Calm,Calm,-,N/A,,Mostly Cloudy,0,2013-03-02 19:56:00
11:56 AM,3.0,-0.9,84,30.14,10.0,Calm,Calm,-,N/A,,Overcast,0,2013-03-02 20:56:00
12:56 PM,7.0,1.9,80,30.14,10.0,West,3.5,-,N/A,,Overcast,280,2013-03-02 21:56:00
1:56 PM,7.0,1.9,80,30.14,10.0,Calm,Calm,-,N/A,,Partly Cloudy,0,2013-03-02 22:56:00
2:56 PM,7.0,3.0,84,30.13,10.0,Calm,Calm,-,N/A,,Clear,0,2013-03-02 23:56:00
3:56 PM,7.0,3.9,87,30.12,10.0,West,3.5,-,N/A,,Clear,270,2013-03-03 00:56:00
4:56 PM,8.1,6.1,92,30.12,10.0,Calm,Calm,-,N/A,,Clear,0,2013-03-03 01:56:00
5:56 PM,5.0,1.9,87,30.13,10.0,SW,3.5,-,N/A,,Clear,230,2013-03-03 02:56:00
6:56 PM,-0.0,-2.9,88,30.15,10.0,Calm,Calm,-,N/A,,Clear,0,2013-03-03 03:56:00
7:06 PM,-2.2,-4.0,92,30.10,1.8,Calm,Calm,-,N/A,,Clear,0,2013-03-03 04:06:00
7:23 PM,-0.4,-2.2,92,30.10,-9999.0,Calm,Calm,-,N/A,,Clear,0,2013-03-03 04:23:00
7:56 PM,-4.0,-8.0,83,30.16,10.0,Calm,Calm,-,N/A,,Clear,0,2013-03-03 04:56:00
8:56 PM,-6.0,-9.9,83,30.18,10.0,Calm,Calm,-,N/A,,Clear,0,2013-03-03 05:56:00
9:56 PM,-6.0,-11.0,79,30.19,10.0,Calm,Calm,-,N/A,,Clear,0,2013-03-03 06:56:00
10:56 PM,-11.0,-15.0,83,30.20,10.0,Calm,Calm,-,N/A,,Clear,0,2013-03-03 07:56:00
11:56 PM,-9.0,-15.0,75,30.20,10.0,Calm,Calm,-,N/A,,Clear,0,2013-03-03 08:56:00